[Date Prev][Date Next][Thread Prev][Thread Next] - [Date Index][Thread Index][Author Index]
2 Line ISS Keps 10-19
- Subject: [sarex] 2 Line ISS Keps 10-19
- From: "Dave Larsen PhD" <doc@xxxxxxxxxxx>
- Date: Mon, 18 Oct 2004 20:05:28 -0700
ISS
1 25544U 98067A 04292.92858796 .00022128 00000-0 19002-3 0 9441
2 25544 51.6359 54.3536 0008908 244.6286 252.4379 15.69243283337754
----
Via the sarex mailing list at AMSAT.ORG courtesy of AMSAT-NA.
To unsubscribe, send "unsubscribe sarex" to Majordomo@amsat.org
AMSAT Home